Weather History for Shreveport, LA

Change the Weather History Date:

Thursday, December 6, 2012

  Actual Average Record
Temperature  
Mean Temperature 55 °F 50 °F  
Max Temperature 60 °F 60 °F 81 °F (1951)
Min Temperature 50 °F 39 °F 17 °F (1950)
Degree Days  
Heating Degree Days 10 16  
Month to date heating degree days 15 89  
Since 1 July heating degree days 375 460  
Cooling Degree Days 0 0  
Month to date cooling degree days 16 0  
Year to date cooling degree days 2950 2474  
Growing Degree Days 6 (Base 50)    
Moisture  
Dew Point 53 °F    
Average Humidity 90    
Maximum Humidity 100    
Minimum Humidity 80    
Precipitation  
Precipitation T in 0.17 in 2.60 in (1935)
Month to date precipitation 0.01 0.98  
Year to date precipitation 46.03 47.62  
Snow  
Snow 0.00 in - - ()
Month to date snowfall 0.0  
Since 1 July snowfall 0.0  
Snow Depth 0.00 in    
Sea Level Pressure  
Sea Level Pressure 29.97 in    
Wind  
Wind Speed 3 mph (SSE)    
Max Wind Speed 10 mph    
Max Gust Speed 12 mph    
Visibility 5 miles    
Events Fog    
T = Trace of Precipitation, MM = Missing Value Source: NWS Daily Summary

Daily Weather History Graph

Daily Weather History Graph

Search for Another Location

Airport:

Trip Planner

Search our weather history database for the weather conditions in past years. The results will help you decide how hot, cold, wet, or windy it might be!

Date:

Astronomy

Dec. 06, 2012 Rise Set
Actual Time 7:03 AM CST 5:09 PM CST
Civil Twilight 6:36 AM CST 5:36 PM CST
Nautical Twilight 6:05 AM CST 6:07 PM CST
Astronomical Twilight 5:36 AM CST 6:37 PM CST
Moon No Moon Rise 12:15 PM CST (12/6)
Length of Visible Light 11h 00m
Length of Day
10h 06m
Waning Gibbous, 49% of the Moon is Illuminated
Dec 6
Waning Gibbous
Dec 13
New
Dec 19
First Quarter
Dec 28
Full
Jan 4
Last Quarter

Hourly Weather History & Observations

Time (CST) Temp. Dew Point Humidity Pressure Visibility Wind Dir Wind Speed Gust Speed Precip Events Conditions
12:26 AM 55.4 °F 51.8 °F 88% 30.07 in 10.0 mi ESE 8.1 mph - N/A   Overcast
12:56 AM 54.0 °F 52.0 °F 93% 30.07 in 10.0 mi SE 5.8 mph - N/A   Overcast
1:26 AM 53.6 °F 51.8 °F 94% 30.06 in 4.0 mi East 5.8 mph - 0.00 in   Light Drizzle
1:56 AM 54.0 °F 52.0 °F 93% 30.05 in 5.0 mi SE 3.5 mph - 0.00 in   Light Drizzle
2:56 AM 53.1 °F 52.0 °F 96% 30.04 in 7.0 mi ESE 4.6 mph - 0.00 in   Overcast
3:07 AM 53.6 °F 51.8 °F 94% 30.05 in 7.0 mi ESE 6.9 mph - N/A   Overcast
3:56 AM 53.1 °F 52.0 °F 96% 30.03 in 3.0 mi SSE 3.5 mph - N/A   Overcast
4:56 AM 53.1 °F 52.0 °F 96% 30.02 in 4.0 mi SW 4.6 mph - N/A   Overcast
5:41 AM 53.6 °F 51.8 °F 94% 30.03 in 2.5 mi West 3.5 mph - N/A   Overcast
5:49 AM 53.6 °F 51.8 °F 94% 30.03 in 2.0 mi Calm Calm - N/A   Overcast
5:56 AM 53.1 °F 52.0 °F 96% 30.02 in 2.0 mi Calm Calm - N/A   Overcast
6:48 AM 53.6 °F 53.6 °F 100% 30.03 in 2.5 mi Calm Calm - 0.00 in   Light Drizzle
6:56 AM 53.1 °F 52.0 °F 96% 30.02 in 3.0 mi Calm Calm - 0.00 in   Light Drizzle
7:08 AM 53.6 °F 51.8 °F 94% 30.02 in 2.0 mi Calm Calm - 0.00 in   Light Drizzle
7:39 AM 53.6 °F 53.6 °F 100% 30.03 in 2.0 mi Calm Calm - 0.00 in   Light Drizzle
7:56 AM 53.1 °F 52.0 °F 96% 30.03 in 2.0 mi Calm Calm - 0.00 in   Overcast
8:50 AM 53.6 °F 53.6 °F 100% 30.04 in 3.0 mi South 6.9 mph - N/A   Overcast
8:56 AM 54.0 °F 54.0 °F 100% 30.04 in 3.0 mi South 5.8 mph - N/A   Overcast
9:18 AM 55.4 °F 53.6 °F 94% 30.04 in 2.5 mi South 5.8 mph - N/A   Overcast
9:56 AM 55.0 °F 54.0 °F 96% 30.04 in 4.0 mi South 5.8 mph - N/A   Overcast
10:56 AM 55.9 °F 53.1 °F 90% 30.04 in 10.0 mi SSW 3.5 mph - N/A   Overcast
11:56 AM 55.9 °F 53.1 °F 90% 30.00 in 10.0 mi WSW 4.6 mph - N/A   Overcast
12:56 PM 57.0 °F 53.1 °F 87% 29.96 in 10.0 mi Calm Calm - N/A   Overcast
1:36 PM 57.2 °F 53.6 °F 88% 29.96 in 10.0 mi SSW 5.8 mph - N/A   Overcast
1:56 PM 57.0 °F 53.1 °F 87% 29.95 in 10.0 mi SSW 5.8 mph - N/A   Overcast
2:56 PM 57.9 °F 53.1 °F 84% 29.93 in 10.0 mi SW 4.6 mph - N/A   Overcast
3:08 PM 57.2 °F 53.6 °F 88% 29.93 in 10.0 mi SSW 3.5 mph - N/A   Overcast
3:56 PM 59.0 °F 53.1 °F 81% 29.92 in 10.0 mi Calm Calm - N/A   Overcast
4:51 PM 57.2 °F 53.6 °F 88% 29.92 in 10.0 mi SSE 3.5 mph - N/A   Scattered Clouds
4:56 PM 57.0 °F 53.1 °F 87% 29.91 in 10.0 mi SE 3.5 mph - N/A   Scattered Clouds
5:56 PM 55.9 °F 52.0 °F 87% 29.92 in 10.0 mi Calm Calm - N/A   Scattered Clouds
6:09 PM 53.6 °F 51.8 °F 94% 29.92 in 10.0 mi Calm Calm - N/A   Mostly Cloudy
6:40 PM 53.6 °F 51.8 °F 94% 29.93 in 10.0 mi Calm Calm - N/A   Scattered Clouds
6:56 PM 51.1 °F 50.0 °F 96% 29.92 in 6.0 mi Calm Calm - N/A   Scattered Clouds
7:56 PM 52.0 °F 51.1 °F 97% 29.92 in 5.0 mi Calm Calm - N/A   Clear
8:56 PM 54.0 °F 53.1 °F 97% 29.91 in 7.0 mi SE 4.6 mph - N/A   Clear
9:47 PM 51.8 °F 51.8 °F 100% 29.92 in 2.5 mi SE 4.6 mph - N/A   Mostly Cloudy
9:48 PM 51.8 °F 51.8 °F 100% 29.92 in 2.5 mi SE 4.6 mph - N/A   Mostly Cloudy
9:56 PM 53.1 °F 53.1 °F 100% 29.91 in 2.5 mi SSE 4.6 mph - N/A   Mostly Cloudy
9:58 PM 51.8 °F 51.8 °F 100% 29.92 in 0.8 mi SSE 3.5 mph - N/A   Mostly Cloudy
10:11 PM 55.4 °F 53.6 °F 94% 29.92 in 2.5 mi SSE 6.9 mph - N/A Fog Patches of Fog
10:23 PM 55.4 °F 55.4 °F 100% 29.91 in 1.8 mi SSE 9.2 mph - N/A Fog Patches of Fog
10:29 PM 55.4 °F 55.4 °F 100% 29.91 in 0.1 mi SSE 8.1 mph - N/A Fog Fog
10:47 PM 55.4 °F 55.4 °F 100% 29.91 in 0.5 mi SSE 9.2 mph - N/A Fog Fog
10:56 PM 55.9 °F 55.0 °F 97% 29.91 in 0.5 mi SSE 9.2 mph - N/A Fog Fog
11:35 PM 55.4 °F 55.4 °F 100% 29.91 in 0.2 mi SSE 8.1 mph - N/A Fog Fog
11:39 PM 55.4 °F 55.4 °F 100% 29.91 in 0.1 mi SSE 8.1 mph - N/A Fog Fog
11:56 PM 55.9 °F 55.9 °F 100% 29.91 in 0.1 mi SSE 8.1 mph - N/A Fog Fog